User: anonymous   Login
Location: Unspecified
(0.0000°N, 0.0000°E)
Time: 18:02:37
(UTC+00:00)
Language:

NOSS 3-2 (C) - Orbit

View from above orbital plane
View from above orbital plane
View from above satellite
View from above satellite

Ground track
Ground track

The orbit data is extracted from the following two-line orbital elements,

1 28097U 03054C   17346.69135488 0.00000020  00000-0  26740-4 0    01
2 28097  63.4180 221.2020 0322000 358.0320   1.9680 13.40742849    03
Epoch (UTC): 12 December 2017 16:35:33
Eccentricity: 0.0322000
inclination: 63.4180°
perigee height: 865 km
apogee height: 1347 km
right ascension of ascending node: 221.2020°
argument of perigee: 358.0320°
revolutions per day: 13.40742849
mean anomaly at epoch: 1.9680°
orbit number at epoch: 0

The dashed part of the orbit path shows where the satellite is in the earth's shadow,  

DLR